START_TIME,STEP,MOV.,M15,t_acc.,M20,t_acc.
1989-08-27T18:00:44.420 ,7,0,0.,24.0,0.,24.0
1989-08-27T18:01:08.420 ,7,1,0.,24.0,0.,24.0
1989-08-27T18:01:32.420 ,7,0,0.,24.0,0.,24.0
1989-08-27T18:01:56.420 ,6,1,0.,24.0,0.,24.0
1989-08-27T18:02:20.420 ,6,0,0.,24.0,0.,24.0
1989-08-27T18:02:44.420 ,5,1,0.,24.0,0.,24.0
1989-08-27T18:03:08.420 ,5,0,0.,24.0,0.,24.0
1989-08-27T18:03:32.420 ,4,1,0.,24.0,0.,24.0
1989-08-27T18:03:56.420 ,4,0,0.,24.0,0.,24.0
1989-08-27T18:04:20.420 ,3,1,0.,24.0,0.,24.0
1989-08-27T18:04:44.420 ,3,0,0.,24.0,0.,24.0
1989-08-27T18:05:08.420 ,2,1,0.,24.0,0.,24.0
1989-08-27T18:05:32.420 ,2,0,0.,24.0,0.,24.0
1989-08-27T18:05:56.420 ,1,1,0.,24.0,0.,24.0
1989-08-27T18:06:20.420 ,1,0,0.,24.0,0.,24.0
1989-08-27T18:06:44.420 ,0,1,0.,24.0,0.,24.0
1989-08-27T18:07:08.420 ,0,0,0.,24.0,0.,24.0
1989-08-27T18:07:32.420 ,0,1,0.,24.0,0.,24.0
1989-08-27T18:07:56.420 ,0,0,0.,24.0,0.,24.0
1989-08-27T18:08:20.420 ,1,1,0.,24.0,0.,24.0
1989-08-27T18:08:44.420 ,1,0,0.,24.0,0.,24.0
1989-08-27T18:09:08.420 ,2,1,0.,24.0,0.,24.0
1989-08-27T18:09:32.420 ,2,0,0.,24.0,0.,24.0
1989-08-27T18:09:56.420 ,3,1,0.,24.0,0.,24.0
1989-08-27T18:10:20.420 ,3,0,0.,24.0,0.,24.0
1989-08-27T18:10:44.420 ,4,1,0.,24.0,0.,24.0
1989-08-27T18:11:08.420 ,4,0,0.,24.0,0.,24.0
1989-08-27T18:11:32.420 ,5,1,0.,24.0,0.,24.0
1989-08-27T18:11:56.420 ,0,0,0.,24.0,0.,24.0
1989-08-27T18:12:19.820 ,0,0,,0,,0
1989-08-27T18:12:20.420 ,6,1,0.,24.0,0.,24.0
1989-08-27T18:12:44.420 ,6,0,0.,24.0,0.,24.0
1989-08-27T18:13:08.420 ,7,1,0.,24.0,0.,24.0
1989-08-27T18:13:32.420 ,7,0,0.,24.0,0.,24.0
1989-08-27T18:13:56.420 ,7,1,0.,24.0,0.,24.0
1989-08-27T18:14:20.420 ,7,0,0.,24.0,0.,24.0
1989-08-27T18:14:44.420 ,6,1,0.,24.0,0.,24.0
1989-08-27T18:15:08.420 ,6,0,0.,24.0,0.,24.0
1989-08-27T18:15:32.420 ,5,1,0.,24.0,0.,24.0
1989-08-27T18:15:56.420 ,0,0,0.,24.0,0.,24.0
1989-08-27T18:18:46.820 ,0,0,0.,24.0,0.,24.0
1989-08-27T18:19:08.420 ,0,0,0.,24.0,0.,24.0
1989-08-27T18:19:32.420 ,0,1,0.,24.0,0.,24.0
1989-08-27T18:19:56.420 ,0,0,0.,24.0,0.,24.0
1989-08-27T18:20:20.420 ,0,1,0.,24.0,0.,24.0
1989-08-27T18:20:44.420 ,0,0,0.,24.0,0.,24.0
1989-08-27T18:21:08.420 ,1,1,0.,24.0,0.,24.0
1989-08-27T18:21:32.420 ,1,0,0.,24.0,0.,24.0
1989-08-27T18:21:56.420 ,2,1,0.,24.0,0.,24.0
1989-08-27T18:22:20.420 ,2,0,0.,24.0,0.,24.0
1989-08-27T18:22:44.420 ,3,1,0.,24.0,0.,24.0
1989-08-27T18:23:08.420 ,3,0,0.,24.0,0.,24.0
1989-08-27T18:23:32.420 ,4,1,0.,24.0,0.,24.0
1989-08-27T18:23:56.420 ,0,0,0.,24.0,0.,24.0
1989-08-27T18:24:58.820 ,0,0,0.,24.0,0.,24.0
1989-08-27T18:25:08.420 ,6,1,0.,24.0,0.,24.0
1989-08-27T18:25:32.420 ,6,0,0.,24.0,0.,24.0
1989-08-27T18:25:56.420 ,7,1,0.,24.0,0.,24.0
1989-08-27T18:26:20.420 ,7,0,0.,24.0,0.,24.0
1989-08-27T18:26:44.420 ,7,1,0.,24.0,0.,24.0
1989-08-27T18:27:08.420 ,7,0,0.,24.0,0.,24.0
1989-08-27T18:27:32.420 ,6,1,0.,24.0,0.,24.0
1989-08-27T18:27:56.420 ,6,0,0.,24.0,0.,24.0
1989-08-27T18:28:20.420 ,5,1,0.,24.0,0.,24.0
1989-08-27T18:28:44.420 ,5,0,0.,24.0,0.,24.0
1989-08-27T18:29:08.420 ,4,1,0.,24.0,0.,24.0
1989-08-27T18:29:32.420 ,4,0,0.,24.0,0.,24.0
1989-08-27T18:29:56.420 ,3,1,0.,24.0,0.,24.0
1989-08-27T18:30:20.420 ,3,0,0.,24.0,0.,24.0
1989-08-27T18:30:44.420 ,2,1,0.,24.0,0.,24.0
1989-08-27T18:31:08.420 ,2,0,0.,24.0,0.,24.0
1989-08-27T18:31:32.420 ,1,1,0.,24.0,0.,24.0
1989-08-27T18:31:56.420 ,1,0,0.,24.0,0.,24.0
1989-08-27T18:32:20.420 ,0,1,0.,24.0,0.,24.0
1989-08-27T18:32:44.420 ,0,0,0.,24.0,0.,24.0
1989-08-27T18:33:08.420 ,0,1,0.,24.0,0.,24.0
1989-08-27T18:33:32.420 ,0,0,0.,24.0,0.,24.0
1989-08-27T18:33:56.420 ,1,1,0.,24.0,0.,24.0
1989-08-27T18:34:20.420 ,1,0,0.,24.0,0.,24.0
1989-08-27T18:34:44.420 ,2,1,0.,24.0,0.,24.0
1989-08-27T18:35:08.420 ,2,0,0.,24.0,0.,24.0
1989-08-27T18:35:32.420 ,3,1,0.,24.0,0.,24.0
1989-08-27T18:35:56.420 ,3,0,0.,24.0,0.,24.0
1989-08-27T18:36:20.420 ,4,1,0.,24.0,0.,24.0
1989-08-27T18:36:44.420 ,4,0,0.,24.0,0.,24.0
1989-08-27T18:37:08.420 ,5,1,0.,24.0,0.,24.0
1989-08-27T18:37:32.420 ,5,0,0.,24.0,0.,24.0
1989-08-27T18:37:56.420 ,6,1,0.,24.0,0.,24.0
1989-08-27T18:38:20.420 ,6,0,0.,24.0,0.,24.0
1989-08-27T18:38:44.420 ,7,1,0.,24.0,0.,24.0
1989-08-27T18:39:08.420 ,7,0,0.,24.0,0.,24.0
1989-08-27T18:39:32.420 ,7,1,0.,24.0,0.,24.0
1989-08-27T18:39:56.420 ,7,0,0.,24.0,0.,24.0
1989-08-27T18:40:20.420 ,6,1,0.,24.0,0.,24.0
1989-08-27T18:40:44.420 ,6,0,0.,24.0,0.,24.0
1989-08-27T18:41:08.420 ,5,1,0.,24.0,0.,24.0
1989-08-27T18:41:32.420 ,5,0,0.,24.0,0.,24.0
1989-08-27T18:41:56.420 ,4,1,0.,24.0,0.,24.0
1989-08-27T18:42:20.420 ,4,0,0.,24.0,0.,24.0
1989-08-27T18:42:44.420 ,3,1,0.,24.0,0.,24.0
1989-08-27T18:43:08.420 ,3,0,0.,24.0,0.,24.0
1989-08-27T18:43:32.420 ,2,1,0.,24.0,0.,24.0
1989-08-27T18:43:56.420 ,2,0,0.,24.0,0.,24.0
1989-08-27T18:44:20.420 ,1,1,0.,24.0,0.,24.0
1989-08-27T18:44:44.420 ,1,0,0.,24.0,0.,24.0
1989-08-27T18:45:08.420 ,0,1,0.,24.0,0.,24.0
1989-08-27T18:45:32.420 ,0,0,0.,24.0,0.,24.0
1989-08-27T18:45:56.420 ,0,1,0.,24.0,0.,24.0
1989-08-27T18:46:20.420 ,0,0,0.,24.0,0.,24.0
1989-08-27T18:46:44.420 ,1,1,0.,24.0,0.,24.0
1989-08-27T18:47:08.420 ,1,0,0.,24.0,0.,24.0
1989-08-27T18:47:32.420 ,2,1,0.,24.0,0.,24.0
1989-08-27T18:47:56.420 ,2,0,0.,24.0,0.,24.0
1989-08-27T18:48:20.420 ,3,1,0.,24.0,0.,24.0
1989-08-27T18:48:44.420 ,3,0,0.,24.0,0.,24.0
1989-08-27T18:49:08.420 ,4,1,0.,24.0,0.,24.0
1989-08-27T18:49:32.420 ,4,0,0.,24.0,0.,24.0
1989-08-27T18:49:56.420 ,5,1,0.,24.0,0.,24.0
1989-08-27T18:50:20.420 ,5,0,0.,24.0,0.,24.0
1989-08-27T18:50:44.420 ,6,1,0.,24.0,0.,24.0
1989-08-27T18:51:08.420 ,6,0,0.,24.0,0.,24.0
1989-08-27T18:51:32.420 ,7,1,0.,24.0,0.,24.0
1989-08-27T18:51:56.420 ,7,0,0.,24.0,0.,24.0
1989-08-27T18:52:20.420 ,7,1,0.,24.0,0.,24.0
1989-08-27T18:52:44.420 ,7,0,0.,24.0,0.,24.0
1989-08-27T18:53:08.420 ,6,1,0.,24.0,0.,24.0
1989-08-27T18:53:32.420 ,6,0,0.,24.0,0.,24.0
1989-08-27T18:53:56.420 ,5,1,0.,24.0,0.,24.0
1989-08-27T18:54:20.420 ,5,0,0.,24.0,0.,24.0
1989-08-27T18:54:44.420 ,4,1,0.,24.0,0.,24.0
1989-08-27T18:55:08.420 ,4,0,0.,24.0,0.,24.0
1989-08-27T18:55:32.420 ,3,1,0.,24.0,0.,24.0
1989-08-27T18:55:56.420 ,3,0,0.,24.0,0.,24.0
1989-08-27T18:56:20.420 ,2,1,0.,24.0,0.,24.0
1989-08-27T18:56:44.420 ,2,0,0.,24.0,0.,24.0
1989-08-27T18:57:08.420 ,1,1,0.,24.0,0.,24.0
1989-08-27T18:57:32.420 ,1,0,0.,24.0,0.,24.0
1989-08-27T18:57:56.420 ,0,1,0.,24.0,0.,24.0
1989-08-27T18:58:20.420 ,0,0,0.,24.0,0.,24.0
1989-08-27T18:58:44.420 ,0,1,0.,24.0,0.,24.0
1989-08-27T18:59:08.420 ,0,0,0.,24.0,0.,24.0
1989-08-27T18:59:32.420 ,1,1,0.,24.0,0.,24.0
1989-08-27T18:59:56.420 ,1,0,0.,24.0,0.,24.0
1989-08-27T19:00:20.420 ,2,1,0.,24.0,0.,24.0
1989-08-27T19:00:44.420 ,2,0,0.,24.0,0.,24.0
1989-08-27T19:01:08.420 ,3,1,0.,24.0,0.,24.0
1989-08-27T19:01:32.420 ,3,0,0.,24.0,0.,24.0
1989-08-27T19:01:56.420 ,4,1,0.,24.0,0.,24.0
1989-08-27T19:02:20.420 ,4,0,0.,24.0,0.,24.0
1989-08-27T19:02:44.420 ,5,1,0.,24.0,0.,24.0
1989-08-27T19:03:08.420 ,5,0,0.,24.0,0.,24.0
1989-08-27T19:03:32.420 ,6,1,0.,24.0,0.,24.0
1989-08-27T19:03:56.420 ,6,0,0.,24.0,0.,24.0
1989-08-27T19:04:20.420 ,7,1,0.,24.0,0.,24.0
1989-08-27T19:04:44.420 ,7,0,0.,24.0,0.,24.0
1989-08-27T19:05:08.420 ,7,1,0.,24.0,0.,24.0
1989-08-27T19:05:32.420 ,7,0,0.,24.0,0.,24.0
1989-08-27T19:05:56.420 ,6,1,0.,24.0,0.,24.0
1989-08-27T19:06:20.420 ,6,0,0.,24.0,0.,24.0
1989-08-27T19:06:44.420 ,5,1,0.,24.0,0.,24.0
1989-08-27T19:07:08.420 ,5,0,0.,24.0,0.,24.0
1989-08-27T19:07:32.420 ,4,1,0.,24.0,0.,24.0
1989-08-27T19:07:56.420 ,4,0,0.,24.0,0.,24.0
1989-08-27T19:08:20.420 ,3,1,0.,24.0,0.,24.0
1989-08-27T19:08:44.420 ,3,0,0.,24.0,0.,24.0
1989-08-27T19:09:08.420 ,2,1,0.,24.0,0.,24.0
1989-08-27T19:09:32.420 ,2,0,0.,24.0,0.,24.0
1989-08-27T19:09:56.420 ,1,1,0.,24.0,0.,24.0
1989-08-27T19:10:20.420 ,1,0,0.,24.0,0.,24.0
1989-08-27T19:10:44.420 ,0,1,0.,24.0,0.,24.0
1989-08-27T19:11:08.420 ,0,0,0.,24.0,0.,24.0
1989-08-27T19:11:32.420 ,0,1,0.,24.0,0.,24.0
1989-08-27T19:11:56.420 ,0,0,0.,24.0,0.,24.0
1989-08-27T19:12:20.420 ,1,1,0.,24.0,0.,24.0
1989-08-27T19:12:44.420 ,1,0,0.,24.0,0.,24.0
1989-08-27T19:13:08.420 ,2,1,0.,24.0,0.,24.0
1989-08-27T19:13:32.420 ,2,0,0.,24.0,0.,24.0
1989-08-27T19:13:56.420 ,3,1,0.,24.0,0.,24.0
1989-08-27T19:14:20.420 ,3,0,0.,24.0,0.,24.0
1989-08-27T19:14:44.420 ,4,1,0.,24.0,0.,24.0
1989-08-27T19:15:08.420 ,4,0,0.,24.0,0.,24.0
1989-08-27T19:15:32.420 ,5,1,0.,24.0,0.,24.0
1989-08-27T19:15:56.420 ,5,0,0.,24.0,0.,24.0
1989-08-27T19:16:20.420 ,6,1,0.,24.0,0.,24.0
1989-08-27T19:16:44.420 ,6,0,0.,24.0,0.,24.0
1989-08-27T19:17:08.420 ,7,1,0.,24.0,0.,24.0
1989-08-27T19:17:32.420 ,7,0,0.,24.0,0.,24.0
1989-08-27T19:17:56.420 ,7,1,0.,24.0,0.,24.0
1989-08-27T19:18:20.420 ,7,0,0.,24.0,0.,24.0
1989-08-27T19:18:44.420 ,6,1,0.,24.0,0.,24.0
1989-08-27T19:19:08.420 ,6,0,0.,24.0,0.,24.0
1989-08-27T19:19:32.420 ,5,1,0.,24.0,0.,24.0
1989-08-27T19:19:56.420 ,5,0,0.,24.0,0.,24.0
1989-08-27T19:20:22.220 ,4,1,0.,24.0,0.,24.0
1989-08-27T19:20:44.420 ,4,0,0.,24.0,0.,24.0
1989-08-27T19:21:08.420 ,3,1,0.,24.0,0.,24.0
1989-08-27T19:21:32.420 ,3,0,0.,24.0,0.,24.0
1989-08-27T19:21:56.420 ,2,1,0.,24.0,0.,24.0
1989-08-27T19:22:20.420 ,2,0,0.,24.0,0.,24.0
1989-08-27T19:22:44.420 ,1,1,0.,24.0,0.,24.0
1989-08-27T19:23:08.420 ,1,0,0.,24.0,0.,24.0
1989-08-27T19:23:32.420 ,0,1,0.,24.0,0.,24.0
1989-08-27T19:23:56.420 ,0,0,0.,24.0,0.,24.0
1989-08-27T19:24:20.420 ,0,1,0.,24.0,0.,24.0
1989-08-27T19:24:44.420 ,0,0,0.,24.0,0.,24.0
1989-08-27T19:25:08.420 ,1,1,0.,24.0,0.,24.0
1989-08-27T19:25:32.420 ,1,0,0.,24.0,0.,24.0
1989-08-27T19:25:56.420 ,2,1,0.,24.0,0.,24.0
1989-08-27T19:26:20.420 ,2,0,0.,24.0,0.,24.0
1989-08-27T19:26:44.420 ,3,1,0.,24.0,0.,24.0
1989-08-27T19:27:08.420 ,3,0,0.,24.0,0.,24.0
1989-08-27T19:27:32.420 ,4,1,0.,24.0,0.,24.0
1989-08-27T19:27:56.420 ,4,0,0.,24.0,0.,24.0
1989-08-27T19:28:20.420 ,5,1,0.,24.0,0.,24.0
1989-08-27T19:28:44.420 ,5,0,0.,24.0,0.,24.0
1989-08-27T19:29:08.420 ,6,1,0.,24.0,0.,24.0
1989-08-27T19:29:32.420 ,6,0,0.,24.0,0.,24.0
1989-08-27T19:29:56.420 ,7,1,0.,24.0,0.,24.0
1989-08-27T19:30:20.420 ,7,0,0.,24.0,0.,24.0
1989-08-27T19:30:44.420 ,7,1,0.,24.0,0.,24.0
1989-08-27T19:31:08.420 ,7,0,0.,24.0,0.,24.0
1989-08-27T19:31:32.420 ,6,1,0.,24.0,0.,24.0
1989-08-27T19:31:56.420 ,6,0,0.,24.0,0.,24.0
1989-08-27T19:32:20.420 ,5,1,0.,24.0,0.,24.0
1989-08-27T19:32:44.420 ,5,0,0.,24.0,0.,24.0
1989-08-27T19:33:08.420 ,4,1,0.,24.0,0.,24.0
1989-08-27T19:33:32.420 ,4,0,0.,24.0,0.,24.0
1989-08-27T19:33:56.420 ,3,1,0.,24.0,0.,24.0
1989-08-27T19:34:20.420 ,3,0,0.,24.0,0.,24.0
1989-08-27T19:34:44.410 ,2,1,0.,24.0,0.,24.0
1989-08-27T19:35:08.410 ,2,0,0.,24.0,0.,24.0
1989-08-27T19:35:32.410 ,1,1,0.,24.0,0.,24.0
1989-08-27T19:35:56.410 ,1,0,0.,24.0,0.,24.0
1989-08-27T19:36:20.410 ,0,1,0.,24.0,0.,24.0
1989-08-27T19:36:44.410 ,0,0,0.,24.0,0.,24.0
1989-08-27T19:37:08.410 ,0,1,0.,24.0,0.,24.0
1989-08-27T19:37:32.410 ,0,0,0.,24.0,0.,24.0
1989-08-27T19:37:56.410 ,1,1,0.,24.0,0.,24.0
1989-08-27T19:38:20.410 ,1,0,0.,24.0,0.,24.0
1989-08-27T19:38:44.410 ,2,1,0.,24.0,0.,24.0
1989-08-27T19:39:08.410 ,2,0,0.,24.0,0.,24.0
1989-08-27T19:39:32.410 ,3,1,0.,24.0,0.,24.0
1989-08-27T19:39:56.410 ,3,0,0.,24.0,0.,24.0
1989-08-27T19:40:20.410 ,4,1,0.,24.0,0.,24.0
1989-08-27T19:40:44.410 ,4,0,0.,24.0,0.,24.0
1989-08-27T19:41:08.410 ,5,1,0.,24.0,0.,24.0
1989-08-27T19:41:32.410 ,5,0,0.,24.0,0.,24.0
1989-08-27T19:41:56.410 ,6,1,0.,24.0,0.,24.0
1989-08-27T19:42:20.410 ,6,0,0.,24.0,0.,24.0
1989-08-27T19:42:44.410 ,7,1,0.,24.0,0.,24.0
1989-08-27T19:43:08.410 ,7,0,0.,24.0,0.,24.0
1989-08-27T19:43:32.410 ,7,1,0.,24.0,0.,24.0
1989-08-27T19:43:56.410 ,7,0,0.,24.0,0.,24.0
1989-08-27T19:44:20.410 ,6,1,0.,24.0,0.,24.0
1989-08-27T19:44:44.410 ,6,0,0.,24.0,0.,24.0
1989-08-27T19:45:08.410 ,5,1,0.,24.0,0.,24.0
1989-08-27T19:45:32.410 ,5,0,0.,24.0,0.,24.0
1989-08-27T19:45:56.410 ,4,1,0.,24.0,0.,24.0
1989-08-27T19:46:20.410 ,4,0,0.,24.0,0.,24.0
1989-08-27T19:46:44.410 ,0,0,,0,,0
1989-08-27T19:47:08.410 ,0,0,,0,,0
1989-08-27T19:46:52.210 ,3,1,0.,24.0,0.,24.0
1989-08-27T19:47:08.410 ,3,0,0.,24.0,0.,24.0
1989-08-27T19:47:32.410 ,2,1,0.,24.0,0.,24.0
1989-08-27T19:47:56.410 ,2,0,0.,24.0,0.,24.0
1989-08-27T19:48:20.410 ,1,1,0.,24.0,0.,24.0
1989-08-27T19:48:44.410 ,1,0,0.,24.0,0.,24.0
1989-08-27T19:49:08.410 ,0,1,0.,24.0,0.,24.0
1989-08-27T19:49:32.410 ,0,0,0.,24.0,0.,24.0
1989-08-27T19:49:56.410 ,0,1,0.,24.0,0.,24.0
1989-08-27T19:50:20.410 ,0,0,0.,24.0,0.,24.0
1989-08-27T19:50:44.410 ,1,1,0.,24.0,0.,24.0
1989-08-27T19:51:08.410 ,1,0,0.,24.0,0.,24.0
1989-08-27T19:51:32.410 ,2,1,0.,24.0,0.,24.0
1989-08-27T19:51:56.410 ,2,0,0.,24.0,0.,24.0
1989-08-27T19:52:20.410 ,3,1,0.,24.0,0.,24.0
1989-08-27T19:52:44.410 ,3,0,0.,24.0,0.,24.0
1989-08-27T19:53:08.410 ,4,1,0.,24.0,0.,24.0
1989-08-27T19:53:32.410 ,4,0,0.,24.0,0.,24.0
1989-08-27T19:53:56.410 ,5,1,0.,24.0,0.,24.0
1989-08-27T19:54:20.410 ,5,0,0.,24.0,0.,24.0
1989-08-27T19:54:44.410 ,6,1,0.,24.0,0.,24.0
1989-08-27T19:55:08.410 ,6,0,0.,24.0,0.,24.0
1989-08-27T19:55:32.410 ,0,0,0.,24.0,0.,24.0
1989-08-27T19:55:56.410 ,0,0,0.,24.0,0.,24.0
1989-08-27T19:56:20.410 ,7,1,0.,24.0,0.,24.0
1989-08-27T19:56:44.410 ,7,0,0.,24.0,0.,24.0
1989-08-27T19:57:08.410 ,6,1,0.,24.0,0.,24.0
1989-08-27T19:57:32.410 ,6,0,0.,24.0,0.,24.0
1989-08-27T19:57:56.410 ,5,1,0.,24.0,0.,24.0
1989-08-27T19:58:20.410 ,5,0,0.,24.0,0.,24.0
1989-08-27T19:58:44.410 ,4,1,0.,24.0,0.,24.0
1989-08-27T19:59:08.410 ,4,0,0.,24.0,0.,24.0
1989-08-27T19:59:32.410 ,3,1,0.,24.0,0.,24.0
1989-08-27T19:59:56.410 ,3,0,0.,24.0,0.,24.0
1989-08-27T20:00:20.410 ,2,1,0.,24.0,0.,24.0
1989-08-27T20:00:44.410 ,2,0,0.,24.0,0.,24.0
1989-08-27T20:01:08.410 ,1,1,0.,24.0,0.,24.0
1989-08-27T20:01:32.410 ,1,0,0.,24.0,0.,24.0
1989-08-27T20:01:56.410 ,0,1,0.,24.0,0.,24.0
1989-08-27T20:02:20.410 ,0,0,0.,24.0,0.,24.0
1989-08-27T20:02:44.410 ,0,1,0.,24.0,0.,24.0
1989-08-27T20:03:08.410 ,0,0,0.,24.0,0.,24.0
1989-08-27T20:03:32.410 ,1,1,0.,24.0,0.,24.0
1989-08-27T20:03:56.410 ,1,0,0.,24.0,0.,24.0
1989-08-27T20:04:20.410 ,2,1,0.,24.0,0.,24.0
1989-08-27T20:04:44.410 ,2,0,0.,24.0,0.,24.0
1989-08-27T20:05:08.410 ,3,1,0.,24.0,0.,24.0
1989-08-27T20:05:32.410 ,3,0,0.,24.0,0.,24.0
1989-08-27T20:05:56.410 ,4,1,0.,24.0,0.,24.0
1989-08-27T20:06:20.410 ,4,0,0.,24.0,0.,24.0
1989-08-27T20:06:44.410 ,5,1,0.,24.0,0.,24.0
1989-08-27T20:07:08.410 ,5,0,0.,24.0,0.,24.0
1989-08-27T20:07:32.410 ,6,1,0.,24.0,0.,24.0
1989-08-27T20:07:56.410 ,6,0,0.,24.0,0.,24.0
1989-08-27T20:08:20.410 ,7,1,0.,24.0,0.,24.0
1989-08-27T20:08:44.410 ,7,0,0.,24.0,0.,24.0
1989-08-27T20:09:08.410 ,7,1,0.,24.0,0.,24.0
1989-08-27T20:09:32.410 ,7,0,0.,24.0,0.,24.0
1989-08-27T20:09:56.410 ,6,1,0.,24.0,0.,24.0
1989-08-27T20:10:20.410 ,6,0,0.,24.0,0.,24.0
1989-08-27T20:10:44.410 ,5,1,0.,24.0,0.,24.0
1989-08-27T20:11:08.410 ,5,0,0.,24.0,0.,24.0
1989-08-27T20:11:32.410 ,4,1,0.,24.0,0.,24.0
1989-08-27T20:11:56.410 ,4,0,0.,24.0,0.,24.0
1989-08-27T20:12:20.410 ,3,1,0.,24.0,0.,24.0
1989-08-27T20:12:44.410 ,3,0,0.,24.0,0.,24.0
1989-08-27T20:13:08.410 ,2,1,0.,24.0,0.,24.0
1989-08-27T20:13:32.410 ,2,0,0.,24.0,0.,24.0
1989-08-27T20:13:56.410 ,1,1,0.,24.0,0.,24.0
1989-08-27T20:14:20.410 ,1,0,0.,24.0,0.,24.0
1989-08-27T20:14:44.410 ,0,1,0.,24.0,0.,24.0
1989-08-27T20:15:08.410 ,0,0,0.,24.0,0.,24.0
1989-08-27T20:15:32.410 ,0,1,0.,24.0,0.,24.0
1989-08-27T20:15:56.410 ,0,0,0.,24.0,0.,24.0
1989-08-27T20:16:20.410 ,1,1,0.,24.0,0.,24.0
1989-08-27T20:16:44.410 ,1,0,0.,24.0,0.,24.0
1989-08-27T20:17:08.410 ,2,1,0.,24.0,0.,24.0
1989-08-27T20:17:32.410 ,2,0,0.,24.0,0.,24.0
1989-08-27T20:17:56.410 ,3,1,0.,24.0,0.,24.0
1989-08-27T20:18:20.410 ,3,0,0.,24.0,0.,24.0
1989-08-27T20:18:44.410 ,4,1,0.,24.0,0.,24.0
1989-08-27T20:19:08.410 ,4,0,0.,24.0,0.,24.0
1989-08-27T20:19:32.410 ,5,1,0.,24.0,0.,24.0
1989-08-27T20:19:56.410 ,5,0,0.,24.0,0.,24.0
1989-08-27T20:20:20.410 ,6,1,0.,24.0,0.,24.0
1989-08-27T20:20:44.410 ,6,0,0.,24.0,0.,24.0
1989-08-27T20:21:08.410 ,7,1,0.,24.0,0.,24.0
1989-08-27T20:21:32.410 ,7,0,0.,24.0,0.,24.0
1989-08-27T20:21:56.410 ,7,1,0.,24.0,0.,24.0
1989-08-27T20:22:20.410 ,7,0,0.,24.0,0.,24.0
1989-08-27T20:22:44.410 ,6,1,0.,24.0,0.,24.0
1989-08-27T20:23:08.410 ,6,0,0.,24.0,0.,24.0
1989-08-27T20:23:32.410 ,5,1,0.,24.0,0.,24.0
1989-08-27T20:23:56.410 ,5,0,0.,24.0,0.,24.0
1989-08-27T20:24:20.410 ,4,1,0.,24.0,0.,24.0
1989-08-27T20:24:44.410 ,4,0,0.,24.0,0.,24.0
1989-08-27T20:25:08.410 ,3,1,0.,24.0,0.,24.0
1989-08-27T20:25:32.410 ,3,0,0.,24.0,0.,24.0
1989-08-27T20:25:56.410 ,2,1,0.,24.0,0.,24.0
1989-08-27T20:26:20.410 ,2,0,0.,24.0,0.,24.0
1989-08-27T20:26:44.410 ,1,1,0.,24.0,0.,24.0
1989-08-27T20:27:08.410 ,1,0,0.,24.0,0.,24.0
1989-08-27T20:27:32.410 ,0,1,0.,24.0,0.,24.0
1989-08-27T20:27:56.410 ,0,0,0.,24.0,0.,24.0
1989-08-27T20:28:20.410 ,0,1,0.,24.0,0.,24.0
1989-08-27T20:28:44.410 ,0,0,0.,24.0,0.,24.0
1989-08-27T20:29:08.410 ,1,1,0.,24.0,0.,24.0
1989-08-27T20:29:32.410 ,1,0,0.,24.0,0.,24.0
1989-08-27T20:29:56.410 ,2,1,0.,24.0,0.,24.0
1989-08-27T20:30:20.410 ,2,0,0.,24.0,0.,24.0
1989-08-27T20:30:44.410 ,3,1,0.,24.0,0.,24.0
1989-08-27T20:31:08.410 ,3,0,0.,24.0,0.,24.0
1989-08-27T20:31:32.410 ,4,1,0.,24.0,0.,24.0
1989-08-27T20:31:56.410 ,4,0,0.,24.0,0.,24.0
1989-08-27T20:32:20.410 ,5,1,0.,24.0,0.,24.0
1989-08-27T20:32:44.410 ,5,0,0.,24.0,0.,24.0
1989-08-27T20:33:08.410 ,6,1,0.,24.0,0.,24.0
1989-08-27T20:33:32.410 ,6,0,0.,24.0,0.,24.0
1989-08-27T20:33:56.410 ,7,1,0.,24.0,0.,24.0
1989-08-27T20:34:20.410 ,7,0,0.,24.0,0.,24.0
1989-08-27T20:34:44.410 ,7,1,0.,24.0,0.,24.0
1989-08-27T20:35:08.410 ,7,0,0.,24.0,0.,24.0
1989-08-27T20:35:32.410 ,6,1,0.,24.0,0.,24.0
1989-08-27T20:35:56.410 ,6,0,0.,24.0,0.,24.0
1989-08-27T20:36:20.410 ,5,1,0.,24.0,0.,24.0
1989-08-27T20:36:44.410 ,5,0,0.,24.0,0.,24.0
1989-08-27T20:37:08.410 ,4,1,0.,24.0,0.,24.0
1989-08-27T20:37:32.410 ,4,0,0.,24.0,0.,24.0
1989-08-27T20:37:56.410 ,3,1,0.,24.0,0.,24.0
1989-08-27T20:38:20.410 ,3,0,0.,24.0,0.,24.0
1989-08-27T20:38:44.410 ,2,1,0.,24.0,0.,24.0
1989-08-27T20:39:08.410 ,0,0,0.,24.0,0.,24.0
1989-08-27T20:41:19.810 ,0,0,0.,24.0,0.,24.0
1989-08-27T20:41:32.410 ,0,0,0.,24.0,0.,24.0
1989-08-27T20:41:56.410 ,1,1,0.,24.0,0.,24.0
1989-08-27T20:42:20.410 ,1,0,0.,24.0,0.,24.0
1989-08-27T20:42:44.410 ,2,1,0.,24.0,0.,24.0
1989-08-27T20:43:08.410 ,2,0,0.,24.0,0.,24.0
1989-08-27T20:43:32.410 ,3,1,0.,24.0,0.,24.0
1989-08-27T20:43:56.410 ,3,0,0.,24.0,0.,24.0
1989-08-27T20:44:20.410 ,4,1,0.,24.0,0.,24.0
1989-08-27T20:44:44.410 ,4,0,0.,24.0,0.,24.0
1989-08-27T20:45:08.410 ,5,1,0.,24.0,0.,24.0
1989-08-27T20:45:32.410 ,5,0,0.,24.0,0.,24.0
1989-08-27T20:45:56.410 ,6,1,0.,24.0,0.,24.0
1989-08-27T20:46:20.410 ,6,0,0.,24.0,0.,24.0
1989-08-27T20:46:44.410 ,7,1,0.,24.0,0.,24.0
1989-08-27T20:47:08.410 ,7,0,0.,24.0,0.,24.0
1989-08-27T20:47:32.410 ,7,1,0.,24.0,0.,24.0
1989-08-27T20:47:56.410 ,7,0,0.,24.0,0.,24.0
1989-08-27T20:48:20.410 ,6,1,0.,24.0,0.,24.0
1989-08-27T20:48:44.410 ,6,0,0.,24.0,0.,24.0
1989-08-27T20:49:08.410 ,5,1,0.,24.0,0.,24.0
1989-08-27T20:49:32.410 ,5,0,0.,24.0,0.,24.0
1989-08-27T20:49:56.410 ,4,1,0.,24.0,0.,24.0
1989-08-27T20:50:20.410 ,4,0,0.,24.0,0.,24.0
1989-08-27T20:50:44.410 ,3,1,0.,24.0,0.,24.0
1989-08-27T20:51:08.410 ,3,0,0.,24.0,0.,24.0
1989-08-27T20:51:32.410 ,2,1,0.,24.0,0.,24.0
1989-08-27T20:51:56.410 ,2,0,0.,24.0,0.,24.0
1989-08-27T20:52:20.410 ,1,1,0.,24.0,0.,24.0
1989-08-27T20:52:44.410 ,1,0,0.,24.0,0.,24.0
1989-08-27T20:53:08.410 ,0,1,0.,24.0,0.,24.0
1989-08-27T20:53:32.410 ,0,0,0.,24.0,0.,24.0
1989-08-27T20:53:56.410 ,0,1,0.,24.0,0.,24.0
1989-08-27T20:54:20.410 ,0,0,0.,24.0,0.,24.0
1989-08-27T20:54:44.410 ,1,1,0.,24.0,0.,24.0
1989-08-27T20:55:08.410 ,1,0,0.,24.0,0.,24.0
1989-08-27T20:55:32.410 ,2,1,0.,24.0,0.,24.0
1989-08-27T20:55:56.410 ,2,0,0.,24.0,0.,24.0
1989-08-27T20:56:20.410 ,3,1,0.,24.0,0.,24.0
1989-08-27T20:56:44.410 ,3,0,0.,24.0,0.,24.0
1989-08-27T20:57:08.410 ,4,1,0.,24.0,0.,24.0
1989-08-27T20:57:32.410 ,4,0,0.,24.0,0.,24.0
1989-08-27T20:57:56.410 ,5,1,0.,24.0,0.,24.0
1989-08-27T20:58:20.410 ,5,0,0.,24.0,0.,24.0
1989-08-27T20:58:44.410 ,6,1,0.,24.0,0.,24.0
1989-08-27T20:59:08.410 ,6,0,0.,24.0,0.,24.0
1989-08-27T20:59:32.410 ,7,1,0.,24.0,0.,24.0
1989-08-27T20:59:56.410 ,7,0,0.,24.0,0.,24.0
1989-08-27T21:00:20.410 ,7,1,0.,24.0,0.,24.0
